Flag for U.S.A. Weather past 2 weeks in Garden Grove, California, U.S.A.

Now
73 °F

Clear.


Feels Like: 73 °F
Forecast: 68 / 83 °F
Wind: 3 mph from West

Location: Fullerton Municipal Airport

Current Time: Jul 31, 2015 at 11:45:26 PM

Latest Report: Jul 31, 2015 at 10:53 PM


Visibility: 9 mi

Pressure: 29.95 "Hg

Humidity: 79%

Dew point: 66 °F

Location of Garden GroveLocation

Historic Weather in Garden Grove — Graph

°F

Garden Grove temperature yesterday

Maximum temperature yesterday: 86 °F (at 12:53 PM)
Minimum temperature yesterday: 71 °F (at 2:53 AM)
Average temperature yesterday: 77 °F

Past Weeks' High & Low Weather Summary

 TemperatureHumidityPressure
High90 °F (Jul 19, 10:53 AM)91% (Jul 18, 8:53 PM)30.07 "Hg (Jul 18, 8:53 PM)
Low66 °F (Jul 17, 4:53 AM)30% (Jul 18, 11:53 AM)29.77 "Hg (Jul 17, 4:53 PM)
Average76 °F68%29.93 "Hg
* Reported Jul 16 9:53 PM — Jul 31 9:53 PM, Garden Grove, Weather by CustomWeather, © 2015

Note: Actual official high and low records may vary slightly from our data, if they occured in-between our weather recording intervals... More about our weather records

Advertising

Garden Grove weather history for previous 24 hours

 ConditionsComfort  
Time TempWeatherWind HumidityBarometerVisibility
9:53 PM
Fri, Jul 31
74 °FClear.3 mph76%29.95 "Hg10 mi
8:53 PM76 °FClear.6 mph72%29.94 "Hg10 mi
7:53 PM79 °FSunny.5 mph62%29.92 "Hg10 mi
6:53 PM83 °FSunny.6 mph53%29.90 "Hg10 mi
5:53 PM86 °FSunny.8 mph49%29.90 "Hg10 mi
4:53 PM87 °FSunny.7 mph50%29.92 "Hg10 mi
3:53 PM87 °FSunny.7 mph50%29.93 "Hg10 mi
2:53 PM86 °FSunny.7 mph51%29.95 "Hg10 mi
1:53 PM86 °FSunny.9 mph53%29.96 "Hg10 mi
12:53 PM84 °FSunny.No wind57%29.99 "Hg10 mi
11:53 AM81 °FSunny.3 mph62%30.01 "Hg10 mi
10:53 AM78 °FPartly sunny.7 mph69%30.02 "Hg9 mi
9:53 AM74 °FOvercast.3 mph79%30.03 "Hg7 mi
8:53 AM73 °FOvercast.7 mph81%30.03 "Hg7 mi
7:53 AM72 °FOvercast.3 mph81%30.03 "Hg7 mi
6:53 AM72 °FOvercast.3 mph81%30.01 "Hg8 mi
5:53 AM71 °FOvercast.3 mph84%30.00 "Hg10 mi
4:53 AM71 °FOvercast.3 mph84%29.99 "Hg10 mi
3:53 AM71 °FOvercast.3 mph84%29.99 "Hg10 mi
2:53 AM71 °FOvercast.5 mph84%29.99 "Hg10 mi
1:53 AM71 °FClear.3 mph81%29.99 "Hg10 mi
12:53 AM72 °FClear.3 mph81%30.01 "Hg10 mi
11:53 PM
Thu, Jul 30
73 °FClear.5 mph79%30.02 "Hg10 mi
Weather by CustomWeather, © 2015

See weather overviewHow to use our weather pages